Temperature
14 14 14 14 14 14 14 14 14 13 13 13 13 13 13 13 13 13 13 13 13 13 13 13 13 13 13 13 13 13 13 13 13 13 13 13 13 13
14 14 14 14 14 14 14 14 13 13 13 13 13 13 13 13 13 13 13 13 13 13 13 13 13 13 13 13 13 13 13 13 13 13 13 13 13 13
14 14 14 14 14 14 14 13 13 13 13 13 13 13 13 13 12 12 12 12 12 12 12 12 12 12 12 12 12 12 12 12 12 12 12 12 12 12
14 14 14 13 13 13 13 13 13 13 13 13 13 13 13 13 12 12 12 12 12 12 12 12 12 12 12 12 12 12 12 12 12 12 12 12 12 12
14 13 13 13 13 13 13 13 13 13 13 13 13 13 13 12 12 12 12 12 12 12 12 12 12 12 12 12 12 12 11 11 11 11 11 11 11 11
13 13 13 13 13 13 13 13 13 13 12 12 12 12 12 12 12 12 12 12 12 12 12 11 11 11 11 11 11 11 11 11 11 11 11 11 11 11
13 13 13 13 13 13 12 12 12 12 12 12 12 12 12 12 12 12 12 12 11 11 11 11 11 11 11 11 11 11 11 11 10 10 10 10 10 10
13 13 13 13 12 12 12 12 12 12 12 12 12 12 11 11 11 11 11 11 11 11 11 11 11 11 11 10 10 10 10 10 10 10 10 10 10 10
13 13 12 12 12 12 12 12 12 12 11 11 11 11 11 11 11 11 10 10 10 10 10 10 10 10 10 10 10 10 10 10 10 9 9 9 9 9
12 12 12 12 12 12 11 11 11 11 11 11 11 11 10 10 10 10 10 10 10 10 9 9 10 10 10 10 9 9 9 9 9 9 9 9 9 9
12 12 12 12 11 11 11 11 11 11 11 10 10 10 10 10 10 10 9 9 9 9 9 9 9 9 9 9 9 9 9 8 8 8 8 8 8 8
12 12 12 11 11 11 11 11 11 10 10 10 10 10 10 9 9 9 9 9 8 8 8 8 8 8 8 8 8 8 8 8 8 8 7 7 7 7
12 12 11 11 11 11 10 10 10 10 10 10 10 9 9 9 9 9 8 8 8 7 7 7 7 7 6 7 7 7 7 7 7 7 7 7 7 6
12 11 11 11 10 10 10 10 10 9 9 9 9 9 9 9 8 8 8 8 7 7 7 6 6 6 6 6 6 7 7 6 6 6 6 6 6 6
11 11 11 10 10 10 10 9 9 9 9 9 9 8 8 8 8 8 7 7 7 7 6 6 6 6 5 5 5 5 6 6 6 6 5 5 5 5
11 11 10 10 10 9 9 9 9 8 8 8 8 8 8 7 7 7 7 7 7 7 6 6 6 5 5 5 5 5 5 5 5 5 5 5 5 4
10 10 10 10 10 9 9 9 8 8 8 8 8 7 7 7 7 6 6 6 6 6 6 6 5 5 5 4 4 4 4 4 4 4 4 4 4 4
10 10 10 9 9 9 8 8 8 8 7 7 7 7 7 6 6 6 5 5 5 5 5 5 4 4 4 4 4 4 3 3 3 3 3 2 3 3
9 9 9 9 9 8 8 8 8 7 7 7 6 6 6 6 5 5 5 5 4 4 4 4 3 3 3 2 3 3 2 2 2 2 2 2 2 2
9 9 9 8 8 8 7 7 7 7 6 6 6 6 5 5 5 4 4 4 4 4 3 3 3 2 2 1 1 2 2 1 1 1 1 1 1 2
9 8 8 8 7 7 7 7 6 6 6 6 5 5 5 4 4 4 3 3 3 3 3 2 2 2 1 1 1 1 1 1 1 0 0 0 0 0
8 8 8 7 7 7 6 6 6 5 5 5 5 4 4 4 3 3 3 3 2 2 2 2 2 1 1 1 0 0 1 1 1 1 0 -0 -1 -1
8 7 7 7 6 6 6 5 5 5 5 4 4 4 4 3 3 3 2 2 2 2 1 1 1 1 0 0 -0 -0 -0 -0 -0 -0 0 0 -0 -1
Wind_Speed
2 2 2 1 1 1 2 3 4 1 1 2 2 3 4 3 4 5 5 7 7 8 9 9 10 10 11 11 11 11 10 9 9 8 8 8 9 9
2 3 2 1 1 1 2 1 2 3 1 2 2 2 3 3 4 4 5 6 7 7 8 7 8 8 8 9 9 9 10 9 9 9 8 8 8 8
3 3 3 2 2 2 2 2 2 2 2 2 1 2 2 3 4 5 5 5 6 7 7 7 7 7 7 8 8 8 8 8 9 9 9 9 9 9
2 3 2 2 3 2 2 2 1 1 2 1 1 2 2 2 3 3 4 4 5 6 6 6 6 7 7 7 7 7 8 8 8 8 8 8 8 8
2 2 1 3 2 1 2 1 1 1 1 2 1 1 1 2 2 2 3 4 5 5 6 6 6 6 7 7 7 7 7 7 7 7 7 7 7 7
1 1 1 2 1 1 1 1 1 2 2 2 0 1 1 2 1 2 3 3 3 5 6 6 6 6 6 6 7 7 7 7 7 7 7 7 7 7
1 1 0 1 1 2 1 1 2 2 2 1 1 1 2 2 1 1 1 3 2 2 3 4 5 5 6 7 7 7 7 7 7 7 7 8 8 8
0 1 1 1 1 1 1 2 4 3 2 2 1 1 2 2 1 1 1 2 3 2 2 3 3 3 5 6 7 7 7 8 8 8 7 8 8 8
2 1 0 1 2 2 2 3 2 1 3 3 2 3 3 3 2 1 1 1 3 3 1 3 2 3 5 6 7 8 8 8 8 8 8 8 8 8
2 2 2 2 1 2 2 1 1 1 1 1 3 3 3 2 3 2 2 1 2 2 1 2 3 3 5 7 8 8 7 8 8 8 8 8 9 9
2 2 2 2 3 3 3 1 1 2 2 1 0 1 2 3 0 2 1 1 2 2 1 1 2 3 3 4 7 7 8 8 9 9 10 10 10 10
1 1 2 3 2 3 3 2 2 3 2 2 3 3 4 4 2 1 2 1 1 2 2 1 2 2 3 3 3 6 7 9 10 10 11 12 11 8
2 2 2 2 3 3 3 3 4 2 0 0 1 2 3 3 3 2 1 3 2 3 2 1 1 1 2 4 4 4 6 7 8 9 11 12 11 8
3 2 2 2 2 2 2 2 2 1 1 1 1 2 2 2 3 3 3 3 4 5 4 2 2 2 3 4 5 4 5 6 6 6 9 10 10 11
3 3 3 2 1 0 1 1 1 1 1 0 1 2 2 3 3 3 4 3 3 4 4 4 3 3 3 4 5 5 5 5 5 5 6 7 7 7
1 1 1 1 1 1 1 1 0 1 2 2 2 2 2 1 2 2 2 2 3 4 4 5 5 4 4 5 6 7 6 5 5 6 7 7 8 9
2 2 1 1 1 0 1 1 0 0 1 1 2 2 2 2 2 2 2 2 2 4 5 4 5 6 7 6 6 7 7 7 7 7 6 8 8 8
3 1 1 1 2 2 2 1 1 2 2 2 2 2 2 3 3 2 2 2 4 5 5 4 4 4 4 5 7 7 6 7 7 7 6 8 10 9
2 2 2 2 2 2 2 2 2 3 2 2 2 3 3 3 3 3 3 3 4 5 5 4 3 3 6 8 5 6 6 7 7 7 7 8 10 10
2 2 2 2 2 2 2 2 2 2 2 2 2 3 3 3 3 4 4 4 5 5 5 4 4 4 6 8 7 7 8 8 7 8 8 8 9 11
2 2 2 2 2 2 2 2 2 2 2 2 3 3 3 3 4 4 5 6 6 5 6 7 6 8 6 4 6 7 6 9 10 8 8 8 10 9
2 2 2 2 2 2 2 2 2 2 2 3 3 3 3 3 4 5 5 5 5 6 7 7 6 5 4 6 9 10 10 9 10 13 13 12 8 8
2 2 2 2 2 2 2 2 3 3 3 3 4 4 4 4 4 5 5 5 5 6 6 6 5 5 6 7 8 9 11 11 8 8 9 13 17 20
Wind_Direction
81 88 90 76 104 120 136 147 143 131 318 310 320 331 351 9 16 23 24 29 33 34 33 34 36 35 36 36 36 35 36 35 32 29 27 26 25 25
68 77 67 53 73 89 115 116 131 153 199 280 284 311 347 11 19 20 18 23 26 28 29 31 32 31 31 32 32 30 28 27 26 26 23 20 19 20
63 77 65 59 67 70 90 102 108 128 159 286 308 327 351 2 2 11 15 13 12 22 26 26 26 25 26 29 31 29 27 24 22 21 21 19 18 17
77 81 68 74 65 63 82 95 119 143 155 210 317 337 341 346 351 359 7 9 5 13 15 15 15 14 15 17 18 18 17 16 13 10 9 8 7 7
105 101 91 91 70 61 72 75 77 92 121 156 280 325 328 345 360 3 9 2 5 7 7 4 360 1 4 5 3 1 1 1 359 355 354 354 354 356
103 112 120 136 163 147 103 103 98 82 83 92 5 338 328 326 11 360 352 354 351 357 357 357 356 356 354 354 353 349 347 346 346 347 347 345 343 341
45 1 78 146 159 160 144 157 133 112 99 89 30 352 333 332 325 316 324 327 330 348 343 346 347 347 344 344 343 343 342 340 338 337 338 337 332 328
149 321 339 9 45 88 130 136 140 143 160 156 197 246 274 264 268 296 328 0 318 328 346 320 338 322 322 325 326 331 334 333 332 329 328 330 329 325
190 213 339 43 79 86 68 64 65 108 164 169 189 230 245 241 219 260 248 234 257 295 342 301 312 300 308 316 318 320 324 327 328 326 323 324 324 321
206 204 212 253 180 145 119 81 22 346 296 196 205 232 245 237 204 216 226 261 289 309 330 282 302 296 306 310 315 320 324 324 322 322 319 317 316 313
231 213 207 223 224 166 138 145 334 320 353 9 272 301 317 320 157 106 61 14 309 302 300 255 293 304 299 296 310 319 320 321 319 318 316 313 309 306
256 267 236 214 222 182 166 170 226 276 316 4 10 359 1 355 4 162 191 207 267 290 289 273 295 325 311 295 308 318 319 315 313 312 312 309 307 305
215 256 255 221 221 207 184 190 221 230 216 332 343 343 350 354 356 349 223 196 213 253 265 224 276 289 272 295 302 299 306 307 311 312 311 306 303 298
208 226 220 199 195 200 193 209 222 151 102 57 359 327 321 316 311 325 310 261 236 249 262 230 238 247 271 288 291 297 301 300 300 303 309 309 305 299
203 200 195 180 150 49 232 223 190 140 139 163 275 278 274 283 312 326 334 322 311 294 284 268 252 255 250 265 280 288 299 297 293 298 304 303 298 300
186 157 128 97 94 83 10 354 130 181 184 219 254 270 288 305 308 301 306 315 316 309 308 292 275 254 263 268 270 281 283 285 295 295 295 295 294 290
139 103 81 72 69 6 339 320 266 224 244 244 250 278 294 300 294 288 286 295 290 297 306 312 307 281 258 257 273 276 280 284 285 292 295 296 291 289
128 140 185 206 216 226 237 264 259 242 242 242 251 262 277 285 293 297 288 280 282 286 289 298 314 320 313 280 241 265 280 287 293 293 287 291 294 294
140 177 199 218 227 229 227 231 250 255 243 236 250 262 271 278 282 289 289 288 287 285 286 288 292 301 306 305 285 242 272 292 296 294 288 285 288 293
175 199 214 224 229 230 233 237 253 268 260 253 257 267 267 274 282 285 283 281 286 291 296 294 284 281 282 288 290 289 274 277 289 291 293 293 287 287
210 216 221 227 234 237 237 236 239 250 260 260 266 267 269 271 276 280 283 286 286 289 291 290 285 286 287 288 292 293 288 281 279 283 290 295 298 297
214 220 230 232 234 238 240 240 246 257 265 264 268 271 274 271 276 282 283 286 285 286 288 293 301 304 292 287 291 296 299 301 298 289 277 272 281 288
220 224 229 232 234 237 242 244 250 263 266 270 274 274 274 273 275 277 280 284 290 295 302 307 309 301 292 287 291 296 299 303 305 305 299 290 281 280
Height
1563 1563 1563 1563 1563 1563 1563 1563 1564 1562 1562 1562 1562 1561 1561 1560 1559 1558 1556 1555 1554 1552 1551 1549 1547 1545 1544 1542 1541 1540 1538 1538 1538 1537 1537 1536 1535 1534
1563 1563 1563 1563 1563 1563 1563 1563 1563 1563 1562 1562 1562 1561 1561 1560 1559 1558 1557 1556 1554 1553 1551 1550 1548 1547 1545 1543 1542 1541 1539 1538 1538 1537 1536 1535 1534 1533
1563 1563 1563 1563 1563 1563 1563 1562 1562 1562 1561 1561 1561 1561 1560 1560 1559 1558 1557 1555 1554 1553 1552 1550 1549 1547 1546 1544 1543 1541 1540 1539 1538 1537 1535 1534 1533 1532
1564 1563 1563 1563 1563 1563 1562 1562 1562 1562 1561 1561 1560 1560 1560 1559 1558 1557 1556 1555 1554 1553 1551 1550 1549 1547 1546 1544 1543 1542 1540 1539 1537 1536 1535 1533 1532 1531
1564 1564 1563 1563 1563 1562 1562 1562 1561 1561 1561 1560 1560 1559 1559 1558 1557 1556 1555 1554 1553 1552 1551 1549 1548 1547 1545 1544 1542 1541 1539 1538 1536 1535 1534 1532 1530 1529
1564 1563 1563 1562 1562 1562 1561 1561 1561 1560 1560 1559 1559 1558 1558 1557 1556 1555 1554 1553 1552 1551 1550 1549 1547 1546 1544 1543 1541 1540 1538 1536 1535 1533 1532 1530 1529 1527
1563 1562 1562 1562 1561 1561 1560 1560 1559 1559 1559 1558 1557 1557 1556 1555 1554 1553 1552 1551 1550 1549 1548 1547 1545 1544 1543 1541 1539 1538 1536 1535 1533 1531 1530 1528 1526 1525
1562 1561 1561 1560 1560 1560 1559 1558 1558 1557 1557 1556 1556 1555 1554 1553 1552 1551 1550 1549 1547 1547 1545 1544 1543 1541 1540 1539 1537 1536 1534 1532 1530 1529 1527 1525 1524 1522
1560 1560 1559 1559 1559 1558 1557 1557 1556 1556 1555 1555 1554 1553 1552 1551 1550 1549 1548 1547 1545 1544 1542 1541 1540 1539 1538 1536 1534 1533 1531 1529 1527 1525 1524 1522 1520 1518
1558 1558 1558 1557 1557 1556 1556 1555 1554 1554 1553 1552 1551 1551 1550 1549 1548 1547 1545 1544 1543 1542 1540 1537 1536 1535 1534 1532 1531 1529 1528 1526 1524 1522 1520 1518 1516 1514
1556 1556 1556 1555 1555 1554 1553 1553 1552 1551 1551 1550 1549 1548 1547 1546 1545 1544 1542 1541 1539 1538 1537 1534 1532 1530 1529 1528 1527 1525 1524 1522 1520 1518 1516 1514 1512 1510
1554 1554 1554 1553 1553 1552 1551 1550 1549 1549 1548 1547 1547 1546 1545 1543 1542 1541 1539 1538 1536 1534 1533 1531 1529 1527 1524 1523 1522 1521 1519 1517 1516 1513 1511 1509 1507 1504
1552 1551 1551 1551 1550 1549 1549 1548 1547 1546 1545 1544 1543 1542 1541 1540 1539 1537 1536 1535 1533 1531 1530 1528 1526 1524 1522 1518 1516 1516 1514 1512 1510 1508 1506 1504 1502 1499
1549 1549 1548 1548 1547 1547 1546 1545 1544 1543 1542 1541 1540 1539 1538 1537 1535 1534 1533 1531 1529 1528 1527 1525 1522 1520 1517 1514 1511 1510 1508 1507 1505 1502 1500 1498 1496 1494
1546 1546 1545 1545 1544 1543 1543 1542 1541 1540 1539 1538 1536 1535 1534 1533 1532 1530 1529 1527 1526 1524 1522 1521 1519 1516 1514 1511 1507 1504 1502 1500 1499 1496 1494 1492 1490 1487
1543 1543 1542 1541 1541 1540 1539 1539 1538 1537 1536 1534 1533 1532 1531 1529 1528 1526 1524 1522 1520 1519 1518 1516 1514 1511 1508 1506 1503 1500 1498 1495 1492 1490 1488 1485 1483 1481
1540 1539 1539 1538 1537 1537 1536 1535 1534 1533 1532 1531 1530 1528 1527 1525 1523 1522 1520 1518 1516 1513 1511 1510 1509 1506 1504 1501 1497 1495 1492 1489 1487 1484 1481 1477 1475 1474
1537 1536 1535 1534 1534 1533 1532 1531 1530 1529 1528 1527 1526 1524 1522 1521 1519 1517 1515 1513 1511 1509 1507 1504 1502 1499 1497 1494 1493 1489 1486 1483 1480 1478 1475 1471 1467 1466
1533 1532 1532 1531 1530 1529 1529 1528 1527 1526 1524 1523 1521 1520 1518 1516 1514 1512 1510 1508 1506 1504 1502 1500 1497 1494 1490 1487 1485 1485 1481 1477 1474 1471 1468 1465 1461 1458
1530 1529 1528 1527 1526 1526 1525 1524 1523 1521 1520 1518 1517 1515 1514 1512 1510 1508 1506 1504 1501 1499 1497 1495 1493 1490 1487 1483 1479 1477 1476 1472 1468 1464 1461 1458 1454 1451
1526 1526 1525 1524 1523 1522 1521 1520 1519 1517 1516 1514 1512 1511 1509 1507 1505 1503 1501 1499 1497 1494 1491 1489 1487 1485 1482 1479 1474 1470 1469 1467 1463 1459 1455 1451 1446 1443
1523 1522 1522 1521 1520 1519 1517 1516 1514 1513 1511 1509 1508 1506 1504 1502 1500 1498 1496 1493 1491 1489 1486 1484 1481 1479 1476 1473 1468 1464 1461 1459 1456 1454 1450 1447 1443 1437
1520 1519 1518 1517 1516 1515 1513 1512 1510 1508 1506 1505 1503 1501 1499 1497 1495 1493 1491 1488 1486 1483 1480 1477 1475 1473 1470 1467 1463 1459 1456 1452 1449 1445 1443 1440 1437 1433